www.pogodaiklimat.ru

Погода и климат >> Архив погоды >> Россия >> Костромская область >> Кологрив


АРХИВ ПОГОДЫ в Кологриве

Время (UTC), дата Ветер
(напр.,м/с)
 
Видим.   Явления Облачность Т
(С)
Тd
(С)
f
(%)
Тe
(С)
Тes
(С)
Комфортность P
(гПа)
Po
(гПа)
Тmin
(С)
Tmax
(С)
R
(мм)
R24
(мм)
S
(см)
18 13.09 штиль 0 10 км {ливн. осадки} 10/4 300 м
[Cb cap As op]
+13.1 +13.0 99 +13 +13 1012.4 994.4
21 13.09 штиль 0 10 км 10/3 300 м
[Cb cap As op]
+10.4 +10.4 100 +10 +10 1011.0 992.9
00 14.09 штиль 0 10 км {ливн. осадки} 10/3 300 м
[Cb cap As op]
+8.7 +8.7 100 +8 +8 1008.9 990.7
03 14.09 ЮВ 1 10 км 10/4 300 м
[Cb cap Ac As]
+10.5 +10.5 100 +10 +10 1005.6 987.6 +8.5 0.3
06 14.09 Ю 4 8000 м слаб. ливневой дождь 10/5 300 м
[Cb cap As op]
+12.8 +12.0 95 +11 +11 1001.9 984.1
09 14.09 Ю 5-13
{13}
10 км {ливн. осадки} 10/8 300 м
[Cb cap As op]
+14.6 +10.3 75 +13 +13 1001.6 983.9
12 14.09 ЮЗ 2
{13}
10 км {ливн. осадки} 10/6 300 м
[Cb cap Ac lent Ci fib]
+14.4 +7.2 62 +14 +15 1005.3 987.5
15 14.09 Ю 1 10 км {ливн. осадки} 3/0
[Ci fib]
+11.0 +6.3 73 +11 +11 1007.2 989.2 +14.9 2
18 14.09 ЮЗ 2 10 км {ливн. осадки} 4/0
[Ac lent Ci fib]
+8.8 +5.7 81 +7 +7 1008.5 990.3
21 14.09 Ю 1 10 км ясно +4.7 +4.6 99 +3 +3 1008.9 990.4
00 15.09 Ю 1 10 км ясно +4.8 +4.7 99 +3 +3 1008.8 990.3
03 15.09 Ю 1 10 км ясно +3.5 +3.5 100 +2 +2 1008.9 990.4 +3.5
06 15.09 ЮЗ 2 10 км 10/5 300 м
[Cb cap Ac As]
+7.2 +5.5 89 +5 +5 1008.8 990.5
09 15.09 ЮЗ 2 10 км 10/6 300 м
[Cb cap Ac As Ci fib]
+10.4 +3.7 63 +9 +11 1008.5 990.4
12 15.09 ЮЗ 2 10 км 8/5 300 м
[Cb cap Ac As Ci fib]
+12.1 +1.9 50 +11 +13 1007.4 989.4
15 15.09 ЮЗ 1 10 км 6/0
[Ac As Ci fib]
+9.0 +2.3 63 +9 +9 1006.3 988.1 +13.0
18 15.09 Ю 3 10 км 3/0
[Ci fib]
+6.3 +4.0 85 +3 +3 1005.4 987.1
21 15.09 Ю 2 10 км 10/0
[Ac As Ci fib]
+4.9 +4.2 95 +2 +2 1002.8 984.4
00 16.09 Ю 2 10 км 10/0
[Ac und]
+5.7 +4.6 93 +3 +3 999.4 981.1
03 16.09 Ю 3 8000 м слаб. дождь 10/4 300 м
[Sc As op]
+5.9 +5.4 97 +2 +2 995.2 977.1 +4.5 0.3
06 16.09 Ю 4 6000 м слаб. дождь 10/6 300 м
[Sc As op]
+7.4 +7.0 97 +4 +4 992.5 974.5
09 16.09 Ю 3 10 км {дождь} 10/5 300 м
[Frnb As op]
+10.4 +9.3 93 +8 +9 991.4 973.7
12 16.09 Ю 2 10 км {ливн. осадки, дождь} 10/4 300 м
[Cb cap Ac As]
+11.1 +8.9 86 +10 +10 990.7 972.9
15 16.09 Ю 1 10 км {ливн. осадки} 10/4 300 м
[Cb cap Ac As Ci fib]
+8.0 +7.6 97 +7 +7 991.1 973.2 +12.2 3
18 16.09 штиль 0 10 км {ливн. осадки} 8/3 300 м
[Cb cap Ac As Ci fib]
+5.0 +5.0 100 +4 +4 991.4 973.3
21 16.09 штиль 0 10 км 10/0
[Ac As Ci fib]
+6.5 +6.5 100 +5 +5 990.6 972.6
00 17.09 Ю 2 10 км 10/3 300 м
[Cb cap Ac As Ci fib]
+8.0 +7.6 97 +6 +6 989.6 971.7
03 17.09 Ю 3 10 км {ливн. осадки} 10/6 300 м
[Sc As op]
+8.5 +7.9 96 +6 +6 988.4 970.6 +4.9 0.3
06 17.09 Ю 2 8000 м слаб. дождь 10/6 300 м
[Sc As op]
+8.7 +7.9 95 +7 +7 988.3 970.4
09 17.09 ЮЗ 2 10 км в посл. час ливневой дождь 10/6 300 м
[Cb cap As op]
+10.1 +8.2 88 +9 +9 988.7 970.9
12 17.09 ЮЗ 2 8000 м слаб. ливневой дождь 10/6 300 м
[Cb cap As op]
+9.9 +7.5 85 +8 +9 990.1 972.3
15 17.09 Ю 1 8000 м слаб. ливневой дождь 10/6 300 м
[Cb cap As op]
+8.2 +7.5 95 +7 +7 991.5 973.6 +11.3 4
18 17.09 Ю 1 10 км {ливн. осадки} 8/4 300 м
[Cb cap As op Ci fib]
+7.3 +7.1 99 +6 +6 992.4 974.4
21 17.09 ЮЗ 1 10 км 6/0
[Ac lent Ci fib]
+7.6 +7.3 98 +7 +7 992.9 974.9
00 18.09 Ю 1 10 км 8/4 300 м
[Sc As op]
+7.2 +7.1 99 +6 +6 993.6 975.5
03 18.09 штиль 0 10 км в посл. час дождь 10/5 300 м
[Sc As op]
+7.1 +7.0 99 +6 +6 994.2 976.1 +6.9 0.3
06 18.09 Ю 1 10 км {дождь} 10/5 300 м
[Sc As op]
+8.4 +7.5 94 +8 +8 995.0 977.0
09 18.09 ЮВ 1 10 км в посл. час ливневой дождь 10/5 300 м
[Cb cap As op]
+10.2 +7.5 83 +10 +10 995.5 977.6
12 18.09 штиль 0 8000 м слаб. ливневой дождь 10/5 300 м
[Cb cap As op]
+9.4 +7.9 90 +9 +9 996.6 978.6
15 18.09 штиль 0 10 км {ливн. осадки} 8/4 300 м
[Cb cap As op Ci fib]
+6.5 +6.3 99 +5 +5 997.4 979.3 +10.5 4
18 18.09 штиль 0 4000 м дымка {ливн. осадки} 8/4 300 м
[Cb cap As op Ci fib]
+4.6 +4.6 100 +3 +3 997.8 979.5
21 18.09 штиль 0 10 км 8/4 300 м
[Cb cap As op]
+4.8 +4.8 100 +4 +4 997.5 979.2
00 19.09 штиль 0 10 км {ливн. осадки} 10/5 300 м
[Cb cap As op]
+6.3 +6.3 100 +5 +5 997.5 979.3
03 19.09 штиль 0 10 км 10/5 300 м
[Sc As op]
+6.2 +6.2 100 +5 +5 998.2 980.0 +4.5 0.4
06 19.09 С 2 8000 м слаб. дождь 10/5 300 м
[Sc As op]
+6.6 +6.3 98 +4 +4 1000.0 981.8
09 19.09 С 2 10 км {дождь} 10/5 300 м
[Sc As op]
+7.3 +5.6 89 +5 +6 1003.1 984.9
12 19.09 С 1 10 км {дождь} 8/5 300 м
[Cb cap As op Ci fib]
+7.9 +4.6 80 +7 +8 1005.7 987.5
15 19.09 штиль 0 10 км в посл. час ливневой дождь 8/6 300 м
[Cb cap Ac As Ci fib]
+5.1 +3.2 88 +4 +4 1008.0 989.5 +8.2 1
18 19.09 штиль 0 10 км {ливн. осадки} 10/0
[Ac und]
+2.7 +2.5 99 +1 +1 1010.1 991.4
21 19.09 штиль 0 10 км 10/0
[Ac und]
+2.4 +2.4 100 +1 +1 1010.9 992.2
00 20.09 штиль 0 10 км 10/0
[Ac As]
+2.1 +2.1 100 +1 +1 1011.7 993.0
03 20.09 штиль 0 10 км ясно -1.1 -1.1 100 -3 -3 1012.5 993.5 -1.1
06 20.09 ЮВ 1 10 км 8/0
[Ci fib]
+4.8 +2.0 82 +4 +6 1012.7 994.1 -1.1
09 20.09 штиль 0 10 км 8/5 300 м
[Cb cap Ac As Ci fib]
+8.2 -0.8 53 +8 +11 1012.3 993.9
12 20.09 Ю 2 10 км 10/4 300 м
[Cb cap Ac As Ci fib]
+8.5 -1.8 48 +7 +8 1011.7 993.4
15 20.09 штиль 0 10 км 10/0
[Ac As Ci fib]
+4.8 +1.8 81 +4 +4 1011.3 992.8 +9.6

 

Местоположение метеостанции Кологрив (Костромская область, Россия): широта 58.82 долгота 44.32 высота над уровнем моря 151 м.

В архиве по умолчанию представлена погода в Кологриве за последнюю неделю. Архивные данные за месяц целиком и за предыдущие месяцы, начиная с января 2011 года, Вы можете получить, выбрав интересующий диапазон дат из раскрывающегося списка и нажав кнопку "Ввод!".


*Определитесь, кто Вы:
робот инопланетянин человек

Внимание! Время в таблицах - всемирное. Для получения местного времени необходимо прибавить поправку, которая равна 3 ч.

Смотрите также архив погоды в соседних городах и на ближайших метеорологических станциях:

Погода в Мантурово (Костромская область, Россия) (61 км)
Погода в Николо-Поломе (Костромская область, Россия) (76 км)
Погода в Пыщуге (Костромская область, Россия) (80 км)
Погода в Шарье (Костромская область, Россия) (86 км)
Погода в Чухломе (Костромская область, Россия) (95 км)
Погода в Никольске (Вологодская область, Россия) (103 км)
Погода в Макарьеве (Костромская область, Россия) (107 км)
Погода в Галиче (Костромская область, Россия) (123 км)
Погода в Ветлуге (Нижегородская область, Россия) (137 км)
Погода в Вохме (Костромская область, Россия) (141 км)

Пояснения к столбцам:

Ветер - указаны скорость ветра в м/с - средняя за 10 мин, порывы в срок и между сроками (в фигурных скобках) и направление, откуда дует ветер: С - северный, СВ - северо-восточный, В - восточный, ЮВ - юго-восточный, Ю - южный, ЮЗ - юго-западный, З - западный, СЗ - северо-западный.
Видимость - горизонтальная дальность видимости в метрах или километрах. При видимости от 1 до 10 км при отсутствии осадков обычно наблюдается дымка, при ухудшении видимости до 1 км и менее - туман. В сухую погоду видимость может ухудшаться дымом, пылью или мглою.
Явления - указаны атмосферные явления, наблюдавшиеся в срок или в последний час перед сроком; фигурными скобками обозначены явления, наблюдавшиеся между сроками (за 1-3 часа до срока); квадратными скобками обозначены град или гололедные отложения с указанием их диаметра в мм.
Облачность - указаны через наклонную черту общая и нижняя облачность в баллах и высота нижней границы облаков в метрах; квадратными скобками обозначены формы облаков: Ci - перистые, Cs - перисто-слоистые, Cc - перисто-кучевые, Ac - высококучевые, As - высокослоистые, Sc - слоисто-кучевые, Ns - слоисто-дождевые, Cu - кучевые, Cb - кучево-дождевые. Подробнее классификацию облаков см. в Атласе облаков (PDF).
T - Температура воздуха - температура, измеренная на высоте 2 м над землей.
Td - Температура точки росы - температура, при понижении до которой содержащийся в воздухе водяной пар достигнет насыщения.
f - Относительная влажность воздуха - влажноcть воздуха, измеренная на высоте 2 м над землей.
Te - Эффективная температура - температура, которую ощущает одетый по сезону человек в тени. Характеристика душности погоды. При расчете учитывается влияние влажности воздуха и скорости ветра на теплоощущения человека.
Tes - Эффективная температура на солнце - температура, которую ощущает человек, с поправкой на солнечный нагрев. Характеристика знойности погоды. Зависит от высоты солнца над горизонтом, облачности и скорости ветра. Ночью, в пасмурную погоду, а также при ветре 12 м/с и более поправка равна нулю.
P - Атмосферное давление - приведенное к уровню моря атмосферное давление.
Po - Атмосферное давление - измеренное на уровне метеостанции атмосферное давление.
Tmin - Минимальная температура - минимум температуры воздуха на высоте 2 м над землей.
Tmax - Максимальная температура - максимум температуры воздуха на высоте 2 м над землей.
R - Количество осадков - Количество выпавших осадков за период времени, мм. При наведении курсора мыши на число - период времени, за который выпало указанное количество осадков.
R24 - Количество осадков - Количество выпавших осадков за 24 часа, мм.
S - Снежный покров - Высота снежного покрова, см. При наведении курсора мыши на число - состояние снежного покрова и степень покрытия местности в баллах.